Theta_e
360 360 364 367 367 367 367 362 360 362 365 364 366 366 367 367 368 368 367 367 367 367 367 366 366 365 366 366 366 366 366 366 365 365 367 366 365 364 365 364 364 364 363 363 362 361 361 361 361 361 360 360 359 359 360 361 360 362 361 359 358 359 358 359 360 360 361 361 361 362 361 358 354 357 356 355 356 357 357 355 354 355 360 362 364
358 361 364 366 367 367 368 364 361 361 366 367 367 367 368 368 368 368 368 368 368 367 367 367 367 366 366 366 366 366 365 366 365 365 365 364 364 364 363 363 362 364 363 362 362 362 361 361 361 361 360 360 361 360 359 360 361 361 358 357 354 356 355 359 361 362 362 361 361 360 360 358 356 358 355 355 355 355 356 356 356 354 360 363 363
359 360 364 365 367 368 368 368 365 365 367 368 368 368 368 367 367 368 368 368 367 367 368 367 367 366 366 366 366 366 366 366 365 365 364 363 363 363 362 363 363 363 362 361 362 362 362 362 362 361 360 360 360 360 360 359 360 360 356 354 356 357 357 360 360 360 360 360 361 361 361 357 357 357 357 356 356 357 357 356 355 357 360 362 361
358 360 364 366 367 368 368 368 367 367 368 368 368 368 368 367 368 368 368 368 367 368 368 367 367 367 367 367 366 366 365 365 364 365 364 363 363 362 362 362 361 361 362 361 361 362 363 362 362 361 360 360 359 359 359 359 359 359 358 356 356 356 356 359 360 359 360 359 360 360 360 355 355 356 358 359 359 359 359 358 357 360 362 361 360
359 361 363 364 364 368 369 368 369 368 368 368 368 368 367 368 368 368 368 368 368 368 368 367 367 367 367 367 366 365 364 365 365 365 365 363 363 362 362 361 360 358 360 360 361 360 361 362 362 362 361 360 360 359 359 359 360 360 358 357 355 356 357 359 360 360 361 359 360 359 357 354 351 356 357 359 360 360 360 358 358 362 362 359 359
359 361 362 361 362 366 368 369 368 369 369 368 368 368 368 368 368 368 368 368 368 368 368 367 367 367 367 366 365 364 365 365 365 365 366 364 363 363 362 361 360 359 361 362 362 361 361 362 362 362 361 360 360 360 359 359 360 360 359 359 357 357 357 358 358 359 360 360 360 358 357 356 353 353 359 359 360 360 360 361 362 361 360 359 358
358 360 361 361 362 365 369 369 368 369 369 368 369 368 368 368 368 368 369 368 368 368 367 367 367 367 366 364 364 364 365 365 365 365 365 365 364 363 363 362 361 360 361 361 361 360 361 361 362 362 361 360 360 360 360 359 358 359 360 358 358 356 356 356 358 359 359 357 356 355 354 355 357 357 359 359 360 360 361 362 361 360 359 358 357
357 359 360 361 363 367 369 368 368 368 369 369 368 369 368 368 368 368 367 368 368 367 367 367 366 365 365 363 364 364 365 364 364 364 364 365 365 364 363 363 361 360 361 360 361 361 361 362 362 362 361 360 360 360 360 358 357 358 358 358 356 353 354 355 356 356 359 356 355 354 354 355 356 358 359 360 360 360 361 361 360 359 359 358 358
357 358 360 361 364 367 367 368 368 369 369 369 368 368 368 367 368 368 367 367 367 367 367 367 366 366 365 364 364 364 364 364 364 364 364 365 365 364 364 364 362 361 361 361 361 360 360 360 361 361 361 361 360 360 359 357 358 358 359 358 356 353 353 355 355 359 359 356 355 355 355 355 356 356 359 360 360 361 361 360 359 359 359 359 358
357 358 360 363 365 369 368 369 368 368 369 368 369 368 368 367 368 367 367 367 366 366 366 366 365 365 365 364 364 365 365 365 365 365 365 365 365 364 365 364 363 362 361 362 361 360 360 360 360 360 361 361 360 359 358 356 356 357 359 357 357 355 355 352 354 358 354 353 354 353 354 357 357 357 358 360 360 362 361 360 358 357 357 358 358
358 360 363 364 366 368 369 369 368 369 368 369 368 368 368 367 367 367 366 366 366 365 366 365 365 365 364 364 364 365 365 364 365 364 364 364 364 364 364 364 363 363 362 361 360 360 359 359 360 360 360 361 359 357 357 357 355 357 358 359 356 356 354 351 355 355 351 350 353 354 357 360 355 357 359 360 361 361 362 359 358 358 359 358 358
361 363 364 365 369 369 368 369 368 369 369 369 368 367 367 367 366 366 366 366 366 365 366 365 364 363 363 363 364 364 363 362 361 363 364 365 365 364 363 362 362 362 361 360 359 359 359 359 359 360 360 361 360 358 356 356 356 355 357 358 358 356 352 355 357 355 351 351 353 355 357 358 358 359 360 361 361 363 364 358 357 358 359 359 359
359 362 364 365 366 369 369 369 369 368 369 368 368 367 367 367 366 366 366 365 366 366 364 363 363 363 363 364 364 363 361 361 362 363 364 364 364 364 363 361 361 362 361 360 359 359 359 359 359 360 360 359 360 358 356 353 353 356 356 357 361 360 356 360 356 354 352 351 353 357 357 359 359 360 360 361 363 364 365 358 359 358 359 360 360
360 362 363 364 364 369 369 369 369 369 368 368 367 367 367 366 367 366 366 365 365 365 363 363 364 363 364 363 363 362 362 362 361 362 364 365 364 362 362 362 361 361 359 359 359 358 359 359 359 359 360 360 360 359 357 353 352 353 355 357 361 360 360 361 359 356 353 353 353 357 359 362 359 361 362 362 363 364 367 359 359 358 361 360 360
361 361 362 364 365 366 369 369 369 369 369 368 367 367 366 367 367 366 365 365 365 364 363 364 364 364 364 363 363 363 362 361 362 362 364 364 364 362 361 361 360 360 359 358 358 359 360 359 359 359 359 359 359 359 358 356 354 355 356 358 361 360 358 355 357 357 357 355 354 359 361 363 360 361 363 363 364 364 358 358 358 359 359 360 360
362 361 363 363 365 367 367 370 369 369 369 368 367 367 367 367 366 365 365 365 364 363 363 364 363 364 364 363 363 363 362 362 362 363 363 364 363 362 361 361 361 361 360 360 358 359 359 360 359 358 358 359 359 358 357 357 355 355 358 359 361 361 360 357 354 356 357 357 356 360 360 362 361 361 363 363 358 356 358 359 359 359 359 360 361
362 362 362 363 365 366 366 367 368 369 368 368 368 367 367 366 366 366 366 365 364 363 364 364 365 364 364 364 363 363 363 363 363 363 364 365 364 363 362 362 361 360 360 359 359 359 360 359 358 358 359 359 358 359 357 356 357 358 359 360 361 361 361 357 353 354 361 356 360 360 359 360 360 361 363 357 356 357 358 358 359 360 359 360 361
360 362 361 362 364 364 366 366 367 367 366 367 367 367 366 366 365 365 365 364 364 364 363 365 364 364 364 364 363 362 363 363 363 363 364 365 364 362 361 362 361 360 360 360 359 358 359 358 358 358 359 359 360 359 359 359 359 359 359 361 361 360 359 358 355 356 355 358 359 361 359 359 360 362 359 357 356 358 358 358 359 360 360 360 360
356 358 361 362 363 364 365 366 367 365 366 366 365 364 366 365 365 364 365 364 364 364 364 364 364 364 364 364 364 362 362 363 364 364 364 365 365 363 362 362 362 361 361 360 359 358 358 358 359 359 359 359 359 360 360 360 359 359 359 359 360 360 360 357 355 355 355 360 360 360 360 359 361 362 358 357 357 358 358 358 360 359 359 360 361
358 360 360 362 362 362 364 365 365 364 365 364 365 364 364 364 365 365 364 364 364 364 364 364 363 363 363 364 362 364 361 362 365 364 365 365 366 364 363 362 362 362 361 360 360 359 358 358 358 359 360 359 360 360 360 360 360 359 360 360 360 360 357 353 352 354 353 357 361 358 361 361 361 359 358 357 358 359 358 359 359 360 359 360 361
355 356 359 361 362 362 363 363 364 365 363 364 365 364 362 363 364 365 364 363 363 364 364 363 363 363 363 364 364 361 364 364 363 364 365 365 367 365 365 364 363 363 361 360 360 360 359 358 358 358 358 359 360 360 360 359 360 360 360 359 360 358 358 358 354 357 355 363 361 358 362 362 361 359 358 359 360 359 358 359 359 359 359 359 359
351 354 358 360 362 362 363 363 362 362 364 363 363 363 363 364 363 364 363 363 363 363 364 362 363 363 362 363 366 363 363 367 365 366 365 365 366 368 367 366 364 363 362 361 361 360 360 359 359 359 359 359 359 358 359 360 360 359 359 360 358 358 360 361 358 356 357 359 359 359 363 363 360 360 360 360 360 359 359 359 360 360 359 359 360
349 351 353 358 359 361 363 365 364 364 362 364 360 363 363 365 364 365 364 363 364 365 364 365 364 365 364 363 366 363 363 366 367 364 364 366 365 371 369 368 366 364 363 363 362 362 360 360 360 360 360 360 359 363 363 360 360 359 358 357 357 358 363 360 356 356 356 357 359 360 363 363 361 361 361 361 362 359 359 360 360 360 360 360 361
348 349 351 356 358 359 361 363 366 363 360 360 361 361 362 367 363 363 363 363 364 364 366 365 366 367 363 363 362 364 364 364 364 365 361 362 365 371 371 369 367 367 365 362 361 361 362 361 360 362 360 359 358 359 359 362 360 358 357 357 357 361 358 357 358 355 360 357 358 362 364 363 362 362 362 361 362 360 359 360 360 360 360 360 361
348 350 351 352 354 355 359 366 367 362 362 361 360 359 363 364 362 362 364 361 364 363 363 365 366 367 367 367 360 360 357 359 368 364 361 359 364 366 368 366 364 363 366 361 362 360 360 361 360 362 360 360 360 355 357 357 356 356 357 358 361 362 358 359 358 358 355 356 358 364 364 364 363 363 362 362 362 361 360 360 360 360 360 360 361
347 347 347 349 351 351 358 362 367 364 362 360 358 359 364 361 360 360 362 363 362 363 363 364 363 367 366 361 362 356 356 355 360 359 361 358 355 361 365 367 367 365 364 363 361 360 359 360 361 361 359 360 358 355 355 361 357 357 356 358 359 356 356 355 355 355 358 358 361 365 363 364 364 364 363 363 363 361 360 360 360 360 360 361 361
348 347 348 348 348 350 353 358 364 364 360 362 361 360 359 361 359 358 357 356 359 359 358 358 360 365 364 362 354 351 348 348 350 355 355 360 350 363 362 366 363 360 363 364 361 360 359 359 361 362 360 360 358 354 357 360 362 360 357 358 359 356 357 358 357 355 354 359 363 366 365 364 364 364 363 363 363 362 362 360 361 360 361 361 361
351 348 348 344 346 347 354 357 359 360 362 359 363 357 359 358 356 362 361 359 359 357 354 355 357 364 364 364 363 351 345 345 349 353 350 349 350 350 360 355 357 358 364 363 361 362 360 360 360 361 359 361 361 355 356 360 359 358 359 359 359 358 356 356 360 358 357 361 362 365 365 365 365 365 364 364 364 363 363 362 361 362 362 362 362
349 349 348 345 343 345 351 355 356 358 358 357 355 356 359 360 358 358 360 360 363 360 358 363 356 358 361 364 365 351 348 343 347 346 353 351 354 361 351 350 350 360 361 362 363 361 358 362 359 359 359 360 359 358 357 357 359 356 358 358 359 358 357 356 358 363 358 360 361 363 366 364 366 365 365 364 364 364 364 363 363 362 361 361 362
353 351 348 349 346 348 348 350 354 355 355 354 359 360 364 359 362 364 364 363 360 369 362 351 352 353 363 363 357 352 347 343 343 347 358 358 353 360 350 347 353 359 355 357 360 358 359 361 357 356 360 357 357 358 358 357 358 356 359 356 358 355 360 359 359 359 358 360 360 361 364 367 365 365 365 365 364 364 363 363 363 364 363 362 362
355 350 353 347 350 346 346 348 352 361 356 353 356 359 365 362 361 360 359 367 362 367 370 361 351 351 353 355 364 362 353 347 344 345 345 352 359 355 346 348 350 351 356 358 358 360 361 358 355 354 355 355 356 361 359 355 354 354 358 358 357 358 359 360 359 359 358 357 358 360 360 367 366 365 364 365 365 363 363 363 363 362 363 364 363
356 359 355 356 356 347 348 350 349 354 358 352 360 355 359 360 365 363 360 362 368 364 360 359 357 355 352 366 369 358 365 355 351 349 344 346 349 350 350 361 349 352 354 357 359 359 359 360 359 360 358 357 356 359 358 357 353 353 355 356 357 357 358 358 358 358 358 358 359 360 361 361 366 365 365 365 365 364 363 363 363 362 363 363 363
358 362 359 361 352 359 362 350 350 355 355 352 353 361 360 356 361 360 367 364 367 367 364 364 364 366 364 366 365 365 377 362 361 357 353 345 345 345 344 348 347 358 354 355 357 357 357 357 358 359 356 357 358 358 357 355 354 352 355 357 358 359 358 358 356 357 358 357 360 360 359 361 361 365 366 365 364 364 363 363 363 363 363 362 363
355 358 360 360 361 365 366 367 367 368 363 366 367 362 364 365 366 365 368 367 366 366 365 364 364 366 367 364 364 364 364 365 360 359 358 356 352 351 349 349 349 349 359 357 356 355 356 354 355 355 355 354 352 355 354 353 357 357 358 359 360 360 362 360 358 358 358 357 356 359 359 360 361 360 361 365 365 364 364 364 364 363 364 363 363
356 356 358 360 361 361 364 364 365 366 364 366 364 365 366 366 366 367 367 368 366 364 366 366 364 364 363 364 362 362 361 362 361 359 357 357 355 354 354 353 352 352 347 358 353 355 353 354 359 357 352 354 355 353 352 353 356 358 359 360 361 363 360 357 360 358 358 357 358 358 359 358 360 360 360 360 363 364 364 364 364 364 364 364 364
356 358 358 360 360 360 362 359 363 363 364 366 366 365 365 363 364 365 367 367 367 364 364 363 364 366 367 366 362 362 363 360 359 362 359 358 358 356 358 359 356 352 350 352 357 355 355 354 355 354 351 356 354 353 357 355 356 357 359 360 360 361 361 362 359 359 360 362 360 358 358 360 359 358 361 359 359 361 364 364 364 364 364 364 364
357 357 357 358 360 360 361 360 360 359 360 361 364 364 364 362 362 361 362 365 363 363 363 362 360 361 369 366 365 364 362 361 360 360 359 358 359 359 359 358 359 354 350 348 350 351 352 353 360 358 358 359 354 356 358 358 361 358 356 360 357 358 360 361 361 361 360 360 358 359 359 359 360 363 359 359 359 359 364 365 365 365 364 364 364
355 357 357 358 358 358 359 360 361 362 362 362 362 362 364 363 362 362 364 363 361 360 360 361 361 360 364 363 363 361 363 361 361 359 359 358 358 359 360 360 357 354 354 352 348 350 354 352 354 359 359 356 351 353 353 351 356 357 359 358 361 360 361 360 362 361 361 361 360 358 360 361 359 359 360 360 359 360 360 363 365 365 365 365 365
356 355 355 358 358 358 359 360 360 361 361 363 362 362 363 362 362 362 361 361 362 361 361 360 360 361 359 363 361 360 362 361 359 359 359 357 355 356 359 359 358 357 355 353 352 355 354 351 351 356 360 357 361 357 358 357 354 358 356 360 363 363 363 363 363 362 360 360 361 359 362 360 362 364 362 361 359 360 360 361 361 361 361 366 366
358 358 358 356 355 358 359 359 360 362 362 362 361 359 359 359 357 359 358 359 359 360 360 360 361 360 359 363 362 360 363 361 361 361 360 358 356 357 357 358 359 357 355 352 350 351 353 354 353 349 357 357 360 357 358 355 358 359 360 361 362 363 359 362 360 361 363 359 360 362 362 364 361 359 361 359 357 359 360 361 363 361 360 364 366
357 358 358 358 357 356 357 356 359 360 358 358 358 357 356 357 356 355 355 357 358 359 357 359 359 359 360 360 362 363 362 360 360 359 360 358 356 357 358 360 359 358 357 354 353 353 355 355 356 365 353 353 353 353 353 357 354 356 359 358 357 360 362 361 362 362 361 361 363 364 364 363 365 361 359 361 359 358 360 361 362 361 360 360 363
355 357 356 357 359 359 358 359 362 361 361 360 359 358 358 359 356 356 358 358 360 359 356 359 360 359 361 362 361 361 360 355 357 361 361 358 356 355 357 358 359 360 360 359 357 359 358 354 353 352 357 353 350 351 353 356 352 350 350 349 355 358 359 356 358 359 361 359 360 359 360 362 361 364 363 361 358 358 360 362 362 361 360 360 361
356 355 358 358 358 358 359 360 360 360 361 361 365 359 363 358 357 359 357 358 360 358 360 361 359 358 360 361 361 361 362 359 356 355 357 358 357 357 357 358 359 360 360 359 358 358 358 355 357 354 352 352 351 351 354 357 350 349 356 349 347 345 352 354 357 358 359 361 361 358 357 359 357 364 362 361 358 362 361 360 362 361 361 361 360
355 355 356 357 357 358 355 356 359 359 361 362 360 358 360 360 360 360 358 355 354 357 356 361 359 358 357 358 360 361 362 361 357 355 358 359 359 358 358 357 359 361 360 359 359 356 357 357 355 354 353 348 348 348 354 355 353 349 341 344 349 343 341 343 349 357 360 361 359 361 359 357 360 361 361 358 357 358 360 359 360 362 362 361 360
353 352 353 355 354 354 355 357 358 358 361 361 361 361 361 358 359 357 356 355 355 354 353 353 355 356 357 358 359 361 362 361 361 359 358 358 360 361 360 360 359 360 356 356 355 354 355 357 356 356 354 349 347 347 348 352 350 352 350 344 339 338 340 349 348 355 359 358 360 360 361 362 360 360 360 358 361 360 360 359 359 359 361 362 361
355 356 358 358 358 358 358 359 358 358 359 360 360 359 358 357 356 351 351 349 348 349 350 349 351 352 353 357 360 359 360 361 362 362 361 360 360 362 361 360 357 355 356 354 354 354 354 354 355 354 352 355 352 348 345 350 347 352 353 350 349 343 344 346 343 341 357 360 359 357 361 362 360 359 360 362 360 359 361 359 358 359 361 361 360
357 358 359 359 359 360 360 361 360 360 360 360 360 358 357 355 352 351 350 348 348 350 354 354 353 356 357 357 359 360 360 360 360 360 359 361 359 358 358 356 355 355 355 355 356 353 353 353 355 356 355 356 355 349 346 345 347 348 349 348 350 350 352 347 342 346 341 353 357 357 358 361 361 361 360 361 363 362 362 361 359 358 360 360 360
354 355 355 356 357 358 359 361 361 360 360 357 359 360 356 355 352 350 350 350 348 351 354 352 353 355 355 355 359 359 358 359 358 357 359 360 359 357 355 356 357 357 355 354 355 355 353 354 358 358 357 357 356 351 348 346 343 349 347 346 347 346 350 351 352 346 345 342 346 355 357 358 358 360 360 361 363 362 359 361 360 361 360 361 362
350 349 351 352 353 355 356 357 359 361 360 360 360 358 358 356 355 353 352 353 353 353 352 355 354 355 354 356 358 358 356 356 354 354 356 359 359 359 357 355 356 356 357 357 356 356 355 354 358 359 357 355 355 352 351 349 347 343 350 353 347 345 344 347 350 348 344 341 345 343 346 355 357 357 359 361 362 362 360 362 364 363 362 363 362
347 350 350 350 351 352 353 354 354 357 357 359 360 360 359 358 354 354 353 352 351 351 351 353 354 355 353 356 357 358 359 357 356 356 357 358 357 357 355 355 355 355 359 356 356 357 355 357 357 356 357 355 356 353 351 350 349 348 345 349 350 349 344 346 344 344 345 350 342 342 345 347 344 350 356 357 360 361 361 362 363 363 363 363 363
344 347 346 348 350 350 351 351 353 357 356 355 354 354 357 359 358 354 353 353 351 352 351 352 354 354 354 353 356 358 357 357 358 358 358 357 356 358 356 355 358 359 357 356 357 357 356 357 356 356 355 355 355 354 352 352 350 351 347 347 350 345 348 348 349 348 347 350 348 344 345 348 347 349 353 356 360 362 362 362 363 364 364 362 364
Wind_Speed
12 15 13 15 14 15 17 13 9 7 10 12 13 13 13 13 15 15 15 15 14 13 12 12 11 11 11 11 11 11 11 11 11 12 14 13 12 11 12 12 12 12 11 11 11 11 10 11 10 8 6 7 7 7 8 9 10 11 17 15 10 10 14 13 13 9 9 10 11 11 10 15 14 15 12 12 14 13 14 11 5 2 4 11 16
16 14 12 14 15 16 17 20 13 9 9 12 13 13 13 13 14 15 15 15 14 13 13 12 11 11 11 11 11 11 11 11 11 12 13 12 11 11 12 11 11 12 11 11 11 11 11 11 11 9 8 7 8 8 10 11 12 13 16 11 6 9 13 12 13 13 11 11 11 12 13 16 16 14 14 12 13 12 13 10 11 3 1 13 15
16 15 13 15 17 16 16 19 21 16 14 16 16 16 15 14 14 15 15 15 14 13 13 12 12 12 11 11 11 11 10 10 11 13 12 11 10 10 12 12 11 11 10 10 10 11 11 12 11 10 9 9 8 8 10 12 12 14 18 8 5 10 13 10 12 13 12 11 11 12 14 16 16 15 15 15 14 12 12 12 8 11 5 14 14
17 14 13 15 17 16 17 18 20 21 19 19 18 17 16 15 15 15 15 15 14 13 13 13 12 11 11 11 11 11 11 10 11 13 12 10 9 9 12 11 10 10 10 10 10 10 10 12 12 11 10 8 7 7 9 12 12 12 17 10 6 11 11 8 12 12 13 12 11 11 6 8 12 13 14 15 15 13 12 10 9 8 14 12 14
16 14 14 13 14 15 15 17 19 20 20 19 19 18 17 16 15 15 14 14 13 13 13 12 12 12 12 11 12 11 11 11 11 13 12 11 10 9 11 11 10 9 9 9 9 10 10 11 12 10 10 9 8 8 10 11 13 13 15 10 5 11 10 7 11 12 13 12 11 8 5 9 7 14 14 15 15 14 11 10 10 13 14 14 14
16 14 14 14 14 14 14 15 18 20 19 19 19 18 17 16 15 15 15 14 14 13 13 13 12 12 12 11 11 11 11 10 10 11 11 11 10 10 10 10 9 9 10 9 8 8 9 10 12 11 10 9 9 9 9 11 12 12 12 12 6 9 11 7 8 8 10 11 11 3 5 5 9 8 14 14 14 13 12 13 13 15 14 14 14
17 13 14 14 13 14 13 15 18 19 19 19 18 18 17 16 15 15 15 15 14 13 13 13 12 12 11 11 11 11 10 10 9 9 10 11 10 9 10 9 9 10 9 9 8 9 9 10 11 12 9 9 8 8 9 10 11 12 12 12 9 4 11 9 7 8 9 7 3 4 4 3 4 4 12 11 12 11 14 14 14 15 14 14 14
14 12 13 13 13 14 14 17 17 19 18 18 18 18 17 16 15 15 15 15 15 14 13 13 12 11 11 11 10 10 9 9 8 8 9 10 10 9 9 9 7 8 9 9 9 9 9 9 10 11 10 9 8 7 8 9 9 12 13 15 11 2 2 10 7 3 7 4 4 4 3 4 4 3 8 11 11 11 13 13 13 14 14 14 14
13 14 14 14 13 18 17 17 17 18 18 18 18 18 17 16 16 15 15 15 14 14 13 12 12 11 10 10 10 9 8 8 8 7 8 9 10 9 9 9 7 6 8 8 7 8 8 8 8 10 11 10 9 7 7 6 7 8 13 16 15 6 3 5 5 7 5 3 4 4 4 3 4 4 7 10 12 13 13 12 12 14 13 15 14
13 13 13 12 13 19 18 17 17 17 18 18 18 17 17 17 16 15 15 15 14 14 13 12 11 11 10 10 9 9 8 7 7 7 8 8 9 9 9 9 8 7 7 7 7 7 8 8 9 10 11 11 9 6 6 6 5 6 10 13 17 10 3 2 1 4 3 3 3 4 3 7 3 4 8 9 12 13 14 13 10 10 9 14 15
14 12 13 13 16 19 18 18 17 17 18 18 18 17 17 16 15 15 15 14 14 13 12 12 11 11 11 10 9 8 8 7 7 7 8 8 8 9 9 8 7 7 7 6 7 7 7 8 8 10 11 13 9 6 5 7 5 5 6 9 15 15 6 2 3 1 6 3 3 3 5 10 4 3 10 10 12 12 15 14 12 11 13 13 16
15 13 13 13 17 19 19 18 17 17 17 18 18 17 16 16 15 15 14 14 13 13 12 12 11 11 10 10 9 8 7 7 6 7 8 8 8 8 8 8 7 7 7 6 7 7 7 7 7 8 10 14 11 7 5 6 6 2 2 4 10 18 14 8 2 3 5 2 3 3 3 3 2 5 12 12 10 10 9 11 11 12 12 14 15
14 14 13 14 14 18 18 18 17 16 17 17 17 16 16 16 15 15 14 13 13 12 12 12 11 11 10 9 8 7 6 5 6 6 7 8 8 8 8 7 7 6 7 7 7 7 8 8 7 7 8 11 14 10 5 3 4 5 2 2 7 13 17 11 2 3 2 4 2 2 4 3 3 10 11 11 11 11 10 9 12 11 13 15 13
15 14 13 13 12 17 18 18 16 16 16 17 16 16 16 15 15 14 13 13 12 12 12 12 11 10 10 9 8 7 5 5 5 5 7 7 7 7 6 6 6 6 5 6 5 6 8 8 8 9 9 9 13 11 8 2 3 4 3 4 6 9 12 9 5 1 2 4 3 3 3 2 3 11 12 11 12 12 13 14 12 11 14 14 13
15 15 14 12 13 13 19 18 17 16 16 16 16 15 16 15 14 14 13 12 12 11 11 11 11 10 9 9 8 6 5 4 4 5 6 6 6 5 6 6 6 6 5 5 6 6 6 7 8 8 9 10 11 16 13 6 1 3 6 6 6 11 11 4 4 3 3 2 4 4 2 2 7 10 11 12 14 13 11 12 12 12 12 13 13
16 15 14 12 13 12 12 16 17 17 16 16 15 15 16 15 14 14 13 12 12 11 11 11 11 10 9 8 7 7 5 4 4 4 5 5 5 6 4 4 5 7 6 6 5 5 6 6 6 7 8 9 10 12 16 14 7 7 7 7 5 11 12 8 3 3 2 1 2 3 3 2 10 9 8 11 10 9 10 12 12 13 13 13 13
14 14 14 13 13 12 11 11 13 17 16 15 15 15 15 14 14 13 13 13 12 12 11 11 11 10 9 8 7 7 6 5 4 4 4 6 6 5 5 4 5 5 5 5 5 6 6 6 6 7 8 9 9 10 12 16 16 13 8 6 6 6 11 9 4 3 1 3 3 2 3 3 9 10 10 11 10 11 11 12 12 13 13 13 13
14 13 13 13 12 12 11 11 12 11 11 13 15 15 14 14 13 13 13 13 13 12 11 11 10 10 9 8 7 7 6 6 6 5 5 7 6 5 4 5 4 4 4 4 5 5 5 6 6 6 7 9 9 11 12 12 13 10 9 7 6 6 7 8 4 4 3 7 4 2 2 5 11 10 12 13 12 12 12 12 13 13 14 14 13
11 12 12 12 11 11 11 11 11 10 11 8 7 10 13 13 13 12 12 12 12 12 11 10 10 9 8 7 8 7 6 7 7 7 6 7 7 6 5 5 5 4 4 5 4 5 5 5 6 6 7 7 8 10 11 11 11 12 9 8 5 7 5 5 4 4 5 4 3 2 2 9 11 11 12 12 12 12 12 13 13 14 14 14 13
10 10 10 8 10 11 10 10 10 11 9 9 8 9 11 13 11 11 11 11 11 11 10 10 9 8 8 8 7 6 6 6 8 7 8 7 8 7 7 5 5 6 6 6 7 6 5 5 5 6 7 7 7 8 9 11 10 11 11 10 9 8 3 3 4 4 4 4 5 3 6 13 13 12 12 12 12 13 13 14 14 14 15 14 13
7 10 9 7 8 10 10 9 9 11 10 9 8 8 9 12 10 11 11 11 10 10 10 9 8 7 7 7 7 5 5 4 6 7 8 6 9 8 9 8 7 7 6 6 6 7 6 6 5 5 6 7 7 8 8 8 10 10 10 11 10 6 5 2 5 5 5 2 5 5 11 15 15 14 14 14 14 14 15 15 15 14 14 14 13
9 7 8 8 7 7 8 8 8 10 8 7 8 7 7 9 8 8 7 8 8 9 7 6 8 5 9 6 5 5 5 5 5 8 5 6 8 12 11 9 8 7 6 4 5 5 5 6 5 5 6 6 8 4 5 8 10 10 10 10 6 4 4 2 2 4 4 3 5 6 15 16 16 16 16 16 15 15 15 15 15 14 14 14 12
9 9 9 10 8 7 7 7 8 7 9 7 7 7 9 7 8 8 6 9 8 7 7 7 6 6 6 5 5 5 6 5 6 7 6 10 9 13 12 11 9 9 6 4 4 5 6 6 6 6 6 8 5 3 3 4 5 10 10 7 4 5 3 3 4 5 4 5 5 11 17 18 17 17 18 18 17 15 15 15 15 15 14 14 13
10 9 9 9 9 9 8 6 5 7 7 5 6 7 7 7 6 7 6 6 6 6 6 6 5 6 7 5 5 5 5 6 9 11 9 7 8 13 13 11 8 8 6 4 4 5 7 7 6 7 6 4 3 4 4 2 3 4 5 6 5 3 4 3 4 5 2 6 5 14 18 19 19 18 18 19 18 17 16 15 16 14 14 14 14
8 9 9 10 11 10 9 7 8 8 7 5 4 5 7 5 5 6 6 6 6 6 6 6 5 5 5 6 6 6 5 4 5 4 3 5 5 7 8 7 5 5 7 3 3 2 4 4 4 5 4 3 1 3 4 4 3 2 6 5 5 3 4 4 5 5 5 5 5 13 18 18 18 18 18 18 18 17 16 16 16 15 15 14 14
8 7 9 10 11 12 11 8 5 7 7 5 5 5 7 5 5 6 6 6 6 7 5 5 5 5 4 5 4 3 3 3 4 5 3 5 6 8 7 6 5 4 4 4 3 3 2 4 4 4 4 3 2 2 5 3 5 6 4 3 4 5 4 6 6 6 6 6 6 16 16 16 17 17 17 18 18 17 17 16 16 16 15 15 15
3 8 7 7 10 11 12 11 9 7 8 6 4 4 5 4 3 5 5 4 5 6 5 5 5 6 5 4 4 4 5 5 4 7 6 2 4 7 7 5 6 4 3 5 4 4 3 4 4 3 3 3 2 3 7 3 1 1 3 4 4 4 5 5 6 7 7 6 7 20 17 17 17 17 18 18 18 17 16 16 16 16 16 16 16
4 5 7 9 8 10 12 11 10 8 7 6 4 3 4 4 4 3 3 3 4 3 2 3 3 4 4 3 4 4 4 4 4 3 6 6 4 4 7 3 6 4 4 6 5 4 4 4 4 3 5 5 5 6 5 2 1 2 2 4 5 6 5 4 4 6 7 7 7 16 18 18 18 18 18 18 17 17 16 16 16 16 17 16 16
2 6 7 8 8 9 11 11 10 10 7 7 7 3 4 3 3 2 3 2 2 0 2 1 3 3 5 5 3 4 4 6 3 4 4 4 3 2 1 5 5 6 4 3 5 5 4 4 0 2 4 4 3 4 3 2 3 2 3 4 5 5 5 6 5 5 6 6 6 12 19 20 18 18 18 17 17 17 18 17 16 16 17 17 17
4 2 4 3 7 10 9 9 10 7 8 8 3 3 2 3 2 2 3 4 3 1 2 3 4 3 2 4 7 5 5 4 5 3 2 2 2 1 1 4 6 5 5 5 5 6 5 2 3 4 4 4 4 6 3 3 2 2 4 4 5 6 5 4 5 5 4 5 6 8 21 19 19 18 18 17 18 18 19 18 18 18 17 17 17
3 1 1 2 3 6 10 9 9 7 7 6 5 4 2 2 3 2 2 2 3 3 1 2 4 2 4 7 6 5 4 5 5 5 5 2 3 3 4 4 5 5 7 6 5 4 3 3 3 3 4 4 5 4 4 2 2 3 4 6 6 5 4 4 3 6 7 7 6 6 12 20 19 19 18 18 18 19 19 19 20 19 18 19 18
1 1 1 1 1 7 9 7 9 8 6 7 4 4 3 2 2 2 2 2 2 2 2 3 3 1 4 6 1 4 3 3 4 5 7 5 3 3 3 2 2 8 2 5 7 6 5 5 5 4 5 5 6 5 5 3 0 3 4 7 6 5 5 5 5 6 6 7 7 7 7 11 19 19 19 19 19 20 20 20 20 20 21 20 19
2 2 2 5 1 7 6 3 4 10 6 6 6 2 2 3 2 2 3 4 3 3 3 4 4 5 4 4 5 5 2 2 2 4 5 5 4 5 5 5 5 1 8 7 7 6 6 4 2 3 4 5 6 2 1 2 5 7 10 8 5 4 5 4 4 5 6 6 7 6 5 8 10 18 20 19 20 20 21 21 21 20 20 20 20
3 1 1 1 4 4 3 4 7 6 4 7 4 4 4 2 1 2 2 3 3 2 2 3 3 3 4 4 4 5 6 6 5 4 5 6 6 4 5 4 5 8 1 8 5 4 4 4 5 5 4 4 7 6 4 7 7 8 6 5 4 4 3 3 4 4 5 5 6 7 6 6 7 8 11 19 20 20 21 21 21 21 21 21 21
4 2 2 2 1 1 1 3 4 4 3 5 5 4 3 2 1 1 2 2 2 1 1 1 2 3 2 2 3 2 1 3 3 3 4 4 6 5 6 7 6 10 9 2 5 7 4 7 6 6 8 7 5 7 9 7 6 7 6 5 5 4 4 5 4 4 5 5 8 7 7 7 6 7 8 8 16 21 21 21 21 21 22 21 21
6 4 3 2 2 2 1 0 1 1 2 3 3 3 2 1 0 1 0 1 1 1 0 1 1 1 1 1 1 1 0 1 1 2 2 3 4 5 3 3 4 6 12 7 3 4 9 10 11 11 9 9 10 12 7 8 7 5 6 5 4 4 4 3 4 4 4 4 6 8 7 7 7 7 8 7 8 12 22 21 21 21 21 21 21
7 7 6 4 4 3 2 2 3 3 2 2 2 2 2 2 3 3 3 2 1 1 2 2 3 2 2 2 3 3 3 3 3 2 2 3 4 4 2 2 2 4 7 14 5 6 6 1 4 8 7 2 4 3 1 3 2 3 5 6 5 5 4 3 2 2 1 3 4 4 5 6 6 8 7 7 8 8 17 22 21 21 21 21 21
7 7 6 6 6 5 5 4 4 4 4 4 4 4 3 3 3 3 3 3 3 4 3 3 4 4 3 4 4 3 3 4 4 3 3 3 3 4 4 3 3 5 7 10 8 5 5 8 5 5 5 6 6 6 4 5 4 5 3 5 6 5 5 4 4 3 2 2 3 4 4 5 6 6 6 7 7 8 9 17 23 22 22 21 22
5 6 7 6 4 4 3 4 4 4 4 4 3 3 3 3 3 3 4 4 4 5 4 4 4 4 5 3 4 3 4 4 4 4 4 3 3 4 5 5 4 5 7 7 8 5 6 4 7 4 5 7 6 2 4 5 5 3 5 3 3 4 3 4 3 3 3 2 2 3 3 5 6 5 6 5 6 7 9 9 10 10 13 23 21
5 6 5 6 7 5 5 3 3 3 3 3 4 4 4 4 4 4 4 4 5 4 5 5 5 5 6 5 4 4 4 4 3 4 4 3 3 4 5 6 5 5 7 7 8 6 7 5 6 8 4 4 4 5 5 4 2 1 2 1 1 1 4 4 3 2 2 2 2 3 5 6 5 6 5 6 7 8 8 9 9 10 10 16 24
5 7 5 5 5 6 6 7 6 6 5 5 5 4 5 5 5 5 5 4 5 5 5 5 6 5 6 7 4 4 4 3 4 4 4 4 4 4 5 6 5 5 6 8 8 9 4 5 5 2 7 5 5 6 4 6 4 2 1 2 1 2 2 1 2 4 4 3 3 2 2 3 4 7 8 7 8 7 8 8 9 9 10 8 14
4 5 5 3 3 4 5 4 3 4 4 4 3 3 3 2 2 3 2 1 0 2 4 5 5 5 5 5 5 4 4 4 3 5 4 4 5 5 5 6 6 6 7 7 9 7 6 6 6 5 3 5 5 7 9 9 5 4 3 2 2 1 2 2 3 4 5 3 3 2 2 2 4 4 4 6 8 9 8 9 8 9 9 9 9
6 5 5 6 5 2 1 0 1 3 3 3 2 2 1 0 2 1 0 1 2 4 4 4 5 5 6 6 6 6 5 4 5 6 7 7 7 6 6 6 7 7 6 6 7 7 5 8 7 6 6 5 6 6 6 7 5 4 2 1 1 1 2 3 4 5 5 5 4 4 4 5 6 4 1 2 4 7 8 8 9 10 9 9 8
5 3 2 2 3 3 1 1 2 2 3 3 1 1 3 3 1 3 2 3 3 3 4 3 4 7 7 7 6 6 6 6 9 10 9 8 8 7 6 6 7 7 6 6 6 8 6 6 9 8 6 7 7 6 5 8 6 7 3 2 2 1 2 5 5 4 5 5 6 5 5 7 7 6 5 5 6 5 7 7 10 10 9 9 8
6 4 4 3 2 3 3 4 3 3 3 3 4 2 1 0 1 1 3 4 3 3 3 4 4 6 6 5 5 5 6 7 7 8 8 10 8 6 6 6 6 6 6 8 7 9 9 8 8 7 7 6 7 6 5 8 10 8 5 4 1 1 4 1 4 2 4 5 6 5 5 3 3 5 6 6 5 6 5 8 8 8 9 9 9
5 4 3 4 4 5 5 4 3 2 2 3 3 2 1 1 2 2 3 3 4 2 2 3 3 3 4 1 1 4 5 6 6 5 5 5 4 4 5 5 5 6 8 9 8 8 10 10 9 8 9 7 7 7 7 6 10 9 9 7 5 4 5 4 5 3 3 3 3 5 4 4 4 4 5 6 7 7 5 5 7 7 8 8 9
6 6 4 4 2 2 2 5 4 2 1 3 3 3 3 2 3 4 4 4 4 4 1 3 4 2 2 3 2 3 3 4 5 4 5 5 3 4 5 5 6 7 9 9 8 10 8 10 8 6 6 6 6 7 8 8 7 7 8 8 8 6 7 5 4 3 2 2 3 3 4 4 6 6 6 7 7 6 5 5 7 7 8 8 7
7 6 6 5 5 4 4 3 2 3 5 3 3 4 4 4 5 4 4 4 5 3 3 3 3 3 3 5 3 3 3 4 5 5 5 6 5 5 6 6 7 8 8 10 9 9 9 9 7 5 5 7 6 7 8 9 7 3 8 7 7 7 8 7 5 5 3 3 3 2 3 5 6 6 6 7 7 7 6 6 6 5 5 7 7
5 5 6 5 5 5 5 4 4 4 3 2 5 5 4 4 4 4 3 3 3 1 3 4 3 3 4 5 4 5 5 4 5 6 7 6 6 6 6 6 8 8 8 9 10 11 11 9 6 5 6 8 8 7 7 8 8 8 4 3 4 5 7 8 9 8 4 4 3 5 5 3 5 6 7 8 7 6 7 7 6 6 5 6 7
7 6 6 5 5 5 5 5 5 4 3 4 3 1 4 4 4 4 5 3 2 2 3 4 3 3 4 5 5 5 4 5 6 6 6 6 6 6 6 7 8 9 8 9 11 11 10 8 7 7 7 9 7 7 8 8 8 8 7 6 6 5 6 3 5 6 5 4 5 5 6 7 7 8 8 8 9 8 8 7 7 8 6 5 6
5 6 6 6 5 5 5 5 5 4 3 3 3 3 3 3 1 2 3 1 3 4 3 4 3 4 5 5 5 2 3 4 4 5 7 7 8 8 8 9 9 8 8 10 9 9 9 9 7 7 8 11 9 7 8 8 8 7 10 6 5 6 4 4 4 5 3 3 3 5 5 7 8 6 6 9 8 8 8 7 8 7 6 6 5
Wind_Direction
127 128 128 131 131 131 128 122 118 121 119 123 127 124 127 128 122 117 116 115 115 115 115 116 119 114 108 102 100 98 97 93 87 84 83 84 83 88 88 85 82 82 85 85 81 86 96 102 103 105 92 75 78 75 72 78 77 79 68 79 94 109 111 133 142 145 143 142 132 120 120 111 123 131 139 139 124 122 122 122 111 277 109 116 118
135 129 130 130 132 133 131 134 136 133 131 124 122 122 124 123 119 121 122 122 121 120 119 123 124 118 111 107 104 104 102 97 92 90 91 86 90 94 91 87 89 85 87 91 87 88 98 101 105 100 86 81 84 84 86 88 83 79 85 86 100 103 103 123 131 132 133 121 127 128 124 118 123 135 137 134 130 124 133 138 150 198 259 120 121
129 130 128 131 133 135 134 135 141 149 144 137 133 133 131 129 129 129 129 127 125 123 125 125 124 123 118 111 109 108 101 96 95 94 93 97 99 95 90 90 90 92 88 83 84 85 88 97 97 92 83 75 63 78 90 92 88 85 84 96 117 102 108 127 126 130 128 127 125 125 118 118 125 134 141 143 142 140 142 151 162 159 147 126 126
129 127 127 130 133 135 135 136 139 143 145 140 136 135 135 134 133 133 131 129 127 126 126 127 127 123 118 114 113 106 101 99 96 94 99 99 93 94 94 95 97 90 88 88 85 83 83 94 98 96 93 84 73 72 83 91 93 100 111 119 129 101 111 124 121 125 129 131 120 111 106 106 119 133 133 144 146 143 142 147 165 161 135 133 132
128 127 128 131 134 134 135 135 138 140 141 138 138 137 136 135 133 133 130 130 128 127 127 128 126 122 119 118 111 105 104 102 98 103 107 107 108 99 100 101 97 95 95 93 93 97 96 94 98 98 94 88 89 90 91 89 101 103 109 121 127 109 114 121 116 118 122 118 108 97 93 112 136 135 145 142 138 140 140 155 181 144 129 137 134
128 130 133 132 131 134 133 134 138 138 138 138 137 136 137 135 134 133 131 130 130 129 127 126 124 121 120 114 108 107 106 101 99 105 115 113 108 104 103 105 106 105 102 96 96 99 96 98 101 98 93 96 98 97 95 100 96 101 107 117 127 118 121 121 114 109 115 107 105 90 105 113 135 148 149 149 149 148 150 164 153 126 134 138 133
132 136 131 129 130 132 131 132 136 137 138 137 136 136 137 136 135 132 132 131 129 128 126 122 123 121 114 108 109 109 105 103 106 107 109 115 112 109 107 110 118 109 106 108 106 104 108 108 106 108 103 101 95 94 101 102 105 108 109 112 113 116 124 126 116 119 113 104 98 110 104 102 107 127 139 141 143 147 153 155 131 134 137 138 130
135 130 128 127 128 134 131 132 135 135 138 136 135 136 136 136 133 133 131 129 129 128 126 124 123 116 105 104 109 110 109 112 111 108 109 111 115 116 118 116 115 111 114 113 113 113 111 110 109 112 117 117 115 112 105 101 109 113 113 114 107 108 130 136 145 138 117 90 101 95 111 112 108 93 137 134 141 151 145 133 134 136 141 133 127
129 129 125 123 130 133 133 133 133 135 135 135 135 134 134 133 131 130 130 130 128 127 125 124 118 109 107 105 108 109 110 110 110 109 100 102 112 119 117 115 118 117 114 114 114 112 107 106 113 117 123 121 120 119 107 96 100 103 115 117 129 147 222 121 132 130 110 94 98 101 114 111 114 132 149 143 151 150 134 131 135 142 142 129 133
126 124 120 126 132 135 132 133 133 132 132 132 130 132 132 131 130 130 130 128 128 126 124 120 115 112 114 112 109 110 113 112 108 105 104 102 104 108 114 124 129 123 116 116 115 114 113 120 126 127 125 125 121 122 118 99 85 91 108 120 127 143 167 18 144 126 85 96 103 113 145 135 132 137 151 151 145 144 134 136 143 147 142 145 130
125 121 121 126 133 136 133 133 133 131 131 131 133 132 129 130 130 129 128 127 125 124 122 120 120 121 121 120 116 114 116 111 108 105 101 99 102 103 109 121 121 113 118 122 123 115 122 121 126 126 126 128 128 141 123 106 96 99 107 114 124 135 129 266 271 188 114 132 130 148 154 142 155 145 159 162 156 153 149 144 145 147 151 147 129
119 120 123 129 133 135 133 133 133 132 131 133 132 131 131 131 129 130 128 127 128 125 123 125 127 125 122 119 116 114 114 114 110 100 102 102 98 100 106 114 114 117 117 117 120 127 128 126 124 124 125 123 130 128 116 113 105 124 112 119 130 134 139 195 234 287 104 112 123 143 140 136 164 144 164 164 175 185 196 137 143 145 162 131 137
125 128 127 131 133 135 134 134 134 133 132 132 131 133 134 133 133 132 130 128 127 125 127 129 128 126 122 119 122 123 116 110 108 105 102 102 103 103 109 113 116 116 116 121 125 127 126 131 133 133 130 129 129 131 123 117 127 127 133 164 130 129 148 150 183 275 109 126 135 190 163 168 158 153 171 184 188 211 218 152 139 158 139 137 141
126 127 133 133 133 136 135 136 137 136 135 134 135 134 136 133 133 132 128 130 129 129 132 132 129 126 122 123 126 122 120 118 111 107 104 107 106 104 100 100 102 111 123 127 135 131 133 130 133 134 141 139 129 130 132 165 142 156 189 201 151 122 118 119 141 263 282 131 142 235 162 160 140 161 177 193 204 215 229 141 151 157 137 143 145
127 134 134 132 135 138 138 138 139 138 138 138 136 136 134 135 136 134 131 131 132 134 134 135 130 129 128 130 125 128 131 131 134 121 115 115 117 117 122 129 129 136 145 137 135 135 133 136 136 140 138 139 139 139 142 148 203 227 207 218 171 125 119 134 144 190 250 170 154 193 164 192 148 168 183 196 219 214 155 145 155 157 150 148 150
130 132 132 135 138 138 139 141 141 141 139 139 138 137 138 139 139 139 138 137 137 138 140 138 138 135 136 133 135 137 148 151 145 138 135 136 134 131 136 144 148 143 153 150 143 144 139 139 148 148 147 144 146 145 141 149 174 215 224 229 201 143 140 144 157 159 254 297 181 170 152 177 154 182 205 207 185 153 158 154 165 152 156 156 155
130 136 135 138 140 143 140 142 143 143 142 141 140 141 142 143 144 143 145 143 144 146 144 144 143 141 143 143 143 153 158 173 171 155 165 152 149 146 161 165 154 149 156 164 161 157 150 152 159 163 154 152 152 152 150 152 169 186 191 216 232 184 145 139 150 166 203 186 225 179 156 168 174 187 202 172 168 162 161 168 160 157 163 163 161
137 136 138 141 146 144 145 144 144 146 144 143 145 145 146 146 148 150 152 148 149 150 147 146 145 148 146 149 154 162 173 188 188 186 169 161 157 156 184 185 184 171 181 169 178 181 173 175 180 185 172 165 162 163 157 159 159 165 177 200 226 238 155 141 154 161 202 176 208 194 168 176 180 199 184 170 165 167 166 169 158 162 167 168 166
132 134 140 144 146 146 146 145 151 152 150 149 148 152 151 152 152 155 154 151 149 151 149 149 151 148 157 158 164 183 191 200 207 208 195 163 165 164 189 190 179 192 198 201 196 205 201 192 182 193 196 182 181 178 168 162 163 162 175 181 208 248 227 129 164 162 191 184 177 197 180 182 185 196 176 168 164 167 169 164 163 168 171 170 170
128 136 138 146 147 149 148 153 158 156 159 156 152 156 161 155 157 159 157 157 152 151 155 152 153 161 163 176 176 189 199 214 217 214 210 190 174 184 198 209 202 202 198 207 212 211 207 209 198 193 199 194 195 192 182 171 171 167 172 179 183 214 242 154 184 182 181 198 154 184 188 178 186 184 176 168 170 172 169 167 170 173 173 173 170
138 142 139 151 150 147 156 157 160 165 160 153 154 160 160 161 159 159 162 159 157 159 157 161 157 168 177 181 192 198 206 212 217 224 207 211 185 187 194 210 207 206 200 219 217 213 210 207 206 207 206 197 205 200 198 186 175 175 178 180 184 200 240 174 181 193 178 204 159 186 182 177 180 180 174 172 176 177 171 172 174 178 174 173 173
139 145 146 149 143 150 151 164 161 165 155 157 158 158 153 167 160 160 162 164 164 166 167 166 175 173 191 183 197 202 212 207 208 224 209 215 188 185 196 207 206 204 218 218 234 226 222 230 220 219 224 215 210 211 209 201 195 184 181 187 191 221 213 154 167 202 170 152 182 187 175 179 177 178 176 175 177 181 176 174 178 178 177 174 175
154 153 153 157 157 149 162 172 166 163 164 176 164 136 157 173 162 164 172 164 173 181 172 185 172 192 178 193 195 219 205 194 200 213 211 211 201 186 194 202 205 196 218 209 228 233 234 235 232 224 222 224 219 233 217 187 199 193 186 195 217 215 189 149 185 213 200 171 186 176 175 180 177 177 178 177 178 181 181 178 179 181 180 177 176
152 161 158 161 160 161 160 166 171 179 168 178 163 154 161 179 169 166 170 170 171 186 188 183 189 195 177 193 197 211 213 198 197 211 213 209 206 190 195 195 203 201 198 203 232 241 240 237 227 217 212 222 219 206 220 234 212 180 193 198 203 178 168 187 154 230 220 197 187 176 177 179 177 178 179 178 179 179 181 183 182 183 183 181 181
164 154 158 166 165 160 151 175 178 186 177 166 183 166 158 187 174 167 168 170 173 181 190 185 202 188 201 182 215 201 212 198 161 197 200 222 170 179 187 189 190 197 188 193 192 203 231 238 225 216 214 217 103 322 256 207 197 232 203 194 193 165 182 183 183 198 197 218 208 183 181 180 178 179 180 181 181 182 182 184 186 186 186 187 188
150 160 162 163 170 166 157 166 164 187 176 178 188 161 153 199 174 165 177 169 176 178 186 183 192 190 201 213 231 242 210 227 184 187 216 227 211 178 180 183 168 176 174 147 175 183 208 241 241 205 221 196 168 238 257 215 195 186 207 192 183 186 187 188 177 177 196 201 200 183 186 183 180 181 183 184 186 185 185 185 187 189 189 191 193
226 148 163 168 169 173 161 164 159 189 180 189 192 165 159 207 182 163 184 181 174 175 187 179 182 173 189 222 225 221 239 203 216 180 208 244 272 160 192 171 160 171 169 144 156 176 193 223 229 220 221 231 100 304 281 220 195 156 199 195 181 192 212 198 169 169 187 192 194 182 182 185 185 185 187 186 189 189 189 190 190 192 193 195 198
317 151 167 164 181 169 152 166 164 174 181 185 189 196 161 183 201 171 177 181 183 194 188 180 183 166 178 203 248 255 257 250 219 190 172 220 212 246 167 179 171 162 154 144 157 167 195 212 225 196 235 231 191 196 232 164 201 162 244 190 207 193 208 186 185 172 169 184 181 185 181 185 187 188 190 190 191 192 195 196 195 196 198 199 201
249 230 165 161 184 164 153 166 166 171 175 180 181 209 159 184 199 181 151 206 314 136 120 248 253 183 174 189 208 251 272 282 272 228 191 213 213 271 267 177 174 152 148 157 153 156 195 197 240 263 251 235 241 240 231 217 176 218 231 209 212 204 209 174 176 153 160 183 177 188 187 189 188 190 192 193 194 194 195 198 203 204 205 204 205
241 265 122 167 185 153 163 176 165 185 168 180 181 196 178 165 189 192 151 160 213 209 188 215 208 214 205 176 198 231 252 261 279 320 328 320 303 314 292 293 147 148 161 175 180 180 168 155 159 216 231 252 227 226 230 240 189 219 244 227 213 210 198 192 160 159 143 178 184 193 191 189 190 191 193 195 196 198 195 196 201 206 209 211 210
245 259 81 115 200 167 167 182 168 184 174 191 171 184 175 176 177 204 188 190 175 177 162 246 282 243 196 203 194 194 228 280 292 316 307 244 220 176 235 256 140 166 171 158 177 155 133 185 227 242 237 256 255 225 205 211 207 234 238 235 221 202 199 191 176 151 172 178 189 193 194 191 189 191 195 197 200 200 201 198 200 204 209 210 212
198 355 336 7 295 202 168 182 164 176 182 187 168 172 181 204 185 165 214 205 202 135 182 224 231 263 341 20 323 177 206 235 288 306 298 329 315 291 271 256 263 157 190 160 156 160 163 184 198 218 233 196 225 210 192 197 325 288 241 242 230 192 191 182 187 176 172 172 178 186 186 194 189 189 194 199 201 203 204 203 202 203 205 209 211
262 65 13 349 291 36 36 142 141 171 181 201 163 131 138 181 206 213 45 38 28 23 36 22 13 30 15 4 31 355 64 263 314 325 318 301 295 307 314 296 274 181 171 182 154 142 162 162 168 251 287 335 301 254 279 191 192 207 222 202 205 190 196 191 166 190 175 166 170 177 185 190 191 191 193 199 202 204 206 206 204 205 207 209 209
239 153 23 14 36 25 25 53 51 52 66 71 70 94 91 89 56 35 39 30 42 35 22 20 10 26 35 17 15 31 13 24 7 5 351 331 316 294 269 285 342 315 282 160 145 153 147 160 187 209 243 211 235 250 220 225 216 187 199 197 205 206 202 201 186 174 175 160 170 170 186 186 188 189 194 201 203 205 206 207 207 206 207 209 210
205 250 223 197 287 90 39 44 42 76 71 75 73 79 67 71 77 32 28 33 45 51 54 14 5 15 14 44 357 17 44 19 27 353 330 324 316 322 346 7 351 307 300 237 174 150 180 179 187 176 207 209 208 234 221 216 205 179 195 186 192 197 209 205 198 174 182 169 168 179 183 183 184 187 190 195 206 206 207 209 209 208 209 210 211
180 189 206 208 214 226 140 356 51 62 75 96 89 89 115 149 183 167 33 53 343 328 111 214 131 235 192 156 193 265 31 130 331 328 306 311 301 303 323 359 328 331 312 274 234 194 156 203 188 187 198 199 193 207 212 168 207 185 175 174 187 195 214 199 182 193 180 153 168 184 177 183 184 185 187 192 197 207 209 209 210 211 211 211 212
175 179 175 189 201 196 207 230 228 231 230 230 174 153 170 221 231 239 227 184 174 295 292 256 263 240 149 168 175 174 188 173 195 211 272 263 270 282 283 51 23 299 284 282 248 228 224 358 210 196 182 127 300 254 318 289 183 193 176 167 184 185 200 199 175 183 172 174 183 189 169 178 187 189 192 193 195 199 209 210 210 212 213 212 213
167 177 188 191 201 198 205 213 225 220 220 227 227 217 210 213 232 238 244 236 225 244 248 261 242 241 211 199 175 197 203 193 190 199 217 247 276 287 283 243 203 238 253 275 267 250 231 165 222 207 153 142 217 241 200 245 218 204 189 191 169 178 177 185 169 168 201 204 184 195 184 165 184 190 194 202 201 196 201 210 211 212 213 213 213
157 171 177 186 193 197 214 207 222 222 213 214 215 236 237 231 235 249 249 239 238 241 253 257 255 250 242 201 152 202 197 207 209 197 210 224 244 259 269 265 259 259 269 276 278 292 307 252 219 212 190 189 179 198 162 238 223 181 182 189 159 188 172 163 156 180 189 172 186 209 192 168 174 181 195 200 214 202 195 198 206 209 214 214 214
154 152 183 186 178 170 194 200 213 222 216 210 210 220 219 222 230 225 233 235 239 241 233 235 248 260 265 254 170 185 202 197 214 208 200 221 229 249 262 277 276 273 275 279 277 254 245 258 267 266 210 178 185 215 168 233 187 84 91 95 287 207 211 159 170 159 141 234 194 203 206 169 160 173 193 178 250 201 195 192 198 204 209 214 214
150 153 174 180 172 181 185 190 189 194 206 201 202 203 211 208 216 228 231 228 216 221 225 227 233 231 243 259 246 222 179 212 232 223 220 214 229 244 254 260 257 257 265 261 267 271 273 281 262 227 260 245 198 210 170 199 197 143 88 154 190 222 227 222 193 155 191 210 207 223 171 198 162 181 188 172 205 215 201 197 194 201 208 205 214
148 137 168 154 201 200 190 194 144 187 201 205 202 204 217 229 271 265 272 268 357 231 224 224 227 231 227 221 244 233 173 186 242 265 231 210 221 234 245 251 253 248 247 256 259 258 275 280 279 266 242 250 245 209 187 188 196 190 173 180 184 213 242 221 212 213 193 189 231 202 255 205 218 217 198 173 193 205 209 194 193 200 204 208 202
129 161 170 164 177 156 93 27 202 209 190 195 188 221 127 83 204 198 40 333 231 233 252 220 216 232 233 225 229 228 199 183 222 241 247 230 221 222 233 244 252 253 252 251 255 260 255 258 252 250 260 249 252 241 200 183 188 178 118 129 205 212 182 228 223 225 195 179 199 215 206 211 222 198 244 277 224 204 200 191 193 201 203 206 202
99 68 65 124 98 95 7 236 229 220 204 161 181 276 231 189 16 12 359 265 274 311 303 270 251 243 235 224 214 214 204 194 191 219 227 233 229 216 228 247 257 259 262 264 267 263 256 251 254 254 248 261 263 243 210 193 199 144 163 191 134 250 231 227 198 195 206 197 197 203 197 212 202 181 188 221 230 221 210 200 199 199 202 203 213
143 139 148 149 143 145 187 197 177 211 202 174 194 228 278 133 38 313 282 269 261 260 280 297 264 255 238 226 226 203 221 212 201 208 225 230 221 213 221 233 250 269 266 261 255 258 258 251 251 248 244 248 255 263 246 209 210 174 146 136 108 235 245 249 172 178 194 199 213 202 207 208 194 189 198 210 218 230 223 214 207 202 194 197 211
112 145 149 125 129 149 165 138 137 192 190 161 161 152 133 328 143 231 238 248 257 230 249 253 251 269 273 184 198 242 229 225 214 213 239 261 249 229 238 246 249 266 257 258 261 252 250 254 255 251 246 233 249 268 267 238 231 184 179 177 160 177 186 191 174 200 174 228 214 206 195 212 210 207 222 217 213 226 210 231 224 203 197 198 203
86 89 95 97 96 49 87 137 140 146 131 150 168 162 163 155 221 235 262 275 283 274 250 287 282 244 263 275 216 214 249 256 251 215 220 227 224 251 259 246 241 243 258 260 257 258 256 252 254 256 259 254 243 247 255 265 242 211 195 203 198 178 169 159 206 145 198 203 227 207 218 212 225 226 226 225 217 223 226 224 231 213 195 198 201
95 87 83 78 74 75 54 50 109 160 135 140 227 183 181 193 217 222 227 248 269 269 289 274 259 291 286 255 214 229 217 211 239 245 229 230 226 225 221 233 233 224 236 246 250 252 250 252 245 238 256 261 245 242 257 257 254 245 228 209 228 226 173 187 172 185 174 172 218 233 258 240 236 233 233 237 221 217 228 229 235 235 206 196 196
77 86 88 76 73 64 66 63 54 30 45 156 132 199 170 173 213 235 245 249 272 265 286 257 259 262 268 272 236 224 204 231 238 242 242 232 231 226 220 225 234 231 231 243 246 250 254 254 251 236 238 246 242 242 247 256 257 245 223 262 250 242 213 194 181 191 195 170 189 199 216 208 248 251 238 233 231 220 223 228 219 226 226 203 198
95 92 76 76 76 66 54 52 58 51 41 30 14 2 144 186 194 220 225 241 254 261 246 252 258 221 243 249 254 257 216 193 218 234 237 236 231 222 228 234 235 237 235 244 246 246 247 251 256 258 259 254 243 236 238 243 253 262 243 202 222 229 239 226 225 207 210 163 182 201 203 190 215 234 223 227 227 218 218 222 219 215 216 215 204
84 85 85 80 70 68 62 58 45 45 34 34 24 3 2 331 18 248 188 229 251 239 226 253 240 254 241 262 262 251 277 246 221 224 217 215 232 223 216 225 232 232 235 240 248 253 257 252 247 255 256 255 248 239 242 248 246 243 256 251 206 227 232 223 206 219 165 191 203 207 204 203 207 234 217 220 222 219 220 217 221 211 212 205 216